Location: Ash Swamp
(41.5170°N, 74.6157°W)
Time: 02:43:00
(UTC+00:00)

Atlas Centaur 2 - Pass Details

Date: 14 July 2020
Orbit: 459 x 1310 km, 30.4° (Epoch: 14 August)

Event Time Altitude Azimuth Distance (km) Brightness Sun altitude
Rises 01:04:56 0° 248° (WSW) 2,760 5.4 -6.0°
Reaches altitude 10° 01:08:52 10° 211° (SSW) 2,046 4.2 -6.6°
Maximum altitude 01:10:07 11° 195° (SSW) 2,045 4.0 -6.8°
Drops below altitude 10° 01:11:27 10° 180° (S) 2,177 4.0 -7.0°
Enters shadow 01:14:09 - 157° (SSE) 2,759 4.3 -7.4°
